Location: Poughquag
(41.6090°N, 73.6820°W)
Time: 15:00:40
(UTC-04:00)

Altair - Pass Details

Date: 07 June 2020
Orbit: 1501 x 1683 km, 47.2° (Epoch: 05 July)

Event Time Altitude Azimuth Distance (km) Brightness Sun altitude
Rises 04:04:02 0° 297° (WNW) 4,931 10.0 -12.0°
Reaches altitude 10° 04:07:25 10° 291° (WNW) 3,947 9.4 -11.5°
Maximum altitude 04:16:39 42° 225° (SW) 2,256 7.9 -10.3°
Drops below altitude 10° 04:25:48 10° 159° (SSE) 3,892 9.4 -9.0°
Sets 04:29:08 0° 153° (SSE) 4,857 10.0 -8.6°
